Date String (YYYY-MM-DD hh:mm:ss) UTC,Instrument flags,absolute air pressure of the measurement (hPa),sample flow rate (lpm),inlet stack bypass flow (lpm),air temperature of the measurement (°C),ambient temperature measured by the external sensor (°C),aerosol sample conditioner tube jacket temperature (°C),OPC LED temperature (°C),internal box temperature (°C),relative humidity of the measurement (%),span deviation,mass concentration of particles derived from Lorenz-Mie calculation of OPC scattering (μg/m³),mass concentration of particles derived from Lorenz-Mie calculation of OPC scattering (μg/m³),mass concentration of particles derived from Lorenz-Mie calculation of OPC scattering (μg/m³)
DateTimeUTC,F1_M11,P_M11,Q1_M11,Q2_M11,T1_M11,T2_M11,T3_M11,T4_M11,T5_M11,U1_M11,ZSPAN_M11,X0_M11,X2_M11,X1_M11
2023-11-06 11:00:00,SystemResetWarning,0827.1,5.01,000.00,027.2,026.1,000.0,035.6,028.6,11.7,0000.0,0011.35,0003.46,0002.59
2023-11-06 11:01:00,SystemResetWarning,0827.0,5.01,000.00,027.2,026.1,000.0,035.6,028.6,11.7,0000.0,0011.37,0003.46,0002.57
2023-11-06 11:02:00,SystemResetWarning,0827.0,5.00,000.00,027.2,026.1,000.0,035.6,028.6,11.7,0000.0,0010.87,0003.44,0002.57
2023-11-06 11:03:00,SystemResetWarning,0827.0,5.00,000.00,027.2,026.1,000.0,035.6,028.6,11.7,0000.0,0010.61,0003.39,0002.57
2023-11-06 11:04:00,SystemResetWarning,0826.9,4.99,000.00,027.2,026.0,000.0,035.6,028.5,11.6,0000.0,0010.54,0003.38,0002.58
2023-11-06 11:05:00,SystemResetWarning,0826.9,4.99,000.00,027.1,026.0,000.0,035.6,028.6,11.6,0000.0,0010.51,0003.38,0002.58
2023-11-06 11:06:00,SystemResetWarning,0826.9,5.00,000.00,027.1,026.0,000.0,035.6,028.6,11.6,0000.0,0010.18,0003.36,0002.57
2023-11-06 11:07:00,SystemResetWarning,0826.9,5.00,000.00,027.1,026.0,000.0,035.6,028.6,11.5,0000.0,0009.04,0003.32,0002.57
2023-11-06 11:08:00,SystemResetWarning,0827.0,5.01,000.00,027.1,026.0,000.0,035.6,028.6,11.5,0000.0,0008.78,0003.32,0002.58
2023-11-06 11:09:00,SystemResetWarning,0826.9,5.01,000.00,027.1,026.0,000.0,035.6,028.5,11.5,0000.0,0008.58,0003.33,0002.60
2023-11-06 11:10:00,SystemResetWarning,0826.9,5.00,000.00,027.1,026.0,000.0,035.6,028.6,11.4,0000.0,0008.41,0003.32,0002.62
2023-11-06 11:11:00,SystemResetWarning,0826.9,5.00,000.00,027.1,026.0,000.0,035.6,028.5,11.5,0000.0,0007.92,0003.31,0002.65
2023-11-06 11:12:00,SystemResetWarning,0827.0,5.00,000.00,027.1,026.0,000.0,035.6,028.5,11.5,0000.0,0007.91,0003.34,0002.67
2023-11-06 11:13:00,SystemResetWarning,0826.9,5.00,000.00,027.1,026.0,000.0,035.6,028.5,11.4,0000.0,0008.15,0003.35,0002.68
2023-11-06 11:14:00,SystemResetWarning,0827.0,4.99,000.00,027.1,026.0,000.0,035.6,028.5,11.6,0000.0,0008.68,0003.38,0002.70
2023-11-06 11:15:00,SystemResetWarning,0827.0,4.99,000.00,027.1,026.0,000.0,035.6,028.5,11.4,0000.0,0008.66,0003.37,0002.69
2023-11-06 11:16:00,SystemResetWarning,0827.0,5.01,000.00,027.1,026.0,000.0,035.6,028.5,11.2,0000.0,0009.14,0003.34,0002.70
2023-11-06 11:17:00,SystemResetWarning,0827.0,5.01,000.00,027.1,025.9,000.0,035.6,028.5,11.0,0000.0,0009.47,0003.36,0002.72
2023-11-06 11:18:00,SystemResetWarning,0827.0,4.99,000.00,027.1,025.9,000.0,035.6,028.5,10.9,0000.0,0009.54,0003.41,0002.79
2023-11-06 11:19:00,SystemResetWarning,0827.0,4.99,000.00,027.1,025.9,000.0,035.5,028.5,10.8,0000.0,0008.94,0003.48,0002.88
2023-11-06 11:20:00,SystemResetWarning,0827.0,5.00,000.00,027.1,025.9,000.0,035.5,028.5,10.8,0000.0,0008.62,0003.53,0002.96
2023-11-06 11:21:00,SystemResetWarning,0827.0,5.00,000.00,027.1,025.9,000.0,035.5,028.5,10.8,0000.0,0008.75,0003.55,0003.03
2023-11-06 11:22:00,SystemResetWarning,0827.0,5.00,000.00,027.1,025.9,000.0,035.5,028.5,10.8,0000.0,0009.41,0003.59,0003.09
2023-11-06 11:23:00,SystemResetWarning,0827.0,5.00,000.00,027.1,025.9,000.0,035.5,028.4,10.9,0000.0,0009.31,0003.60,0003.13
2023-11-06 11:24:00,SystemResetWarning,0827.0,5.00,000.00,027.1,025.9,000.0,035.5,028.4,10.8,0000.0,0009.03,0003.63,0003.18
2023-11-06 11:25:00,SystemResetWarning,0827.0,4.99,000.00,027.1,025.8,000.0,035.5,028.4,10.9,0000.0,0008.47,0003.66,0003.22
2023-11-06 11:26:00,SystemResetWarning,0827.0,4.99,000.00,027.1,025.8,000.0,035.5,028.4,10.8,0000.0,0008.41,0003.68,0003.27
2023-11-06 11:27:00,SystemResetWarning,0827.0,5.02,000.00,027.0,025.8,000.0,035.5,028.4,11.0,0000.0,0008.06,0003.72,0003.31
2023-11-06 11:28:00,SystemResetWarning,0827.0,4.99,000.00,027.0,025.8,000.0,035.5,028.4,11.0,0000.0,0007.62,0003.76,0003.34
2023-11-06 11:29:00,SystemResetWarning,0827.0,5.00,000.00,027.0,025.8,000.0,035.5,028.4,10.8,0000.0,0007.63,0003.76,0003.35
2023-11-06 11:30:00,SystemResetWarning,0827.0,4.99,000.00,027.0,025.8,000.0,035.5,028.4,10.9,0000.0,0007.80,0003.74,0003.35
2023-11-06 11:31:00,SystemResetWarning,0827.1,5.00,000.00,027.0,025.8,000.0,035.5,028.4,10.8,0000.0,0007.70,0003.74,0003.34
2023-11-06 11:32:00,SystemResetWarning,0827.0,5.00,000.00,027.0,025.8,000.0,035.5,028.4,10.8,0000.0,0008.63,0003.78,0003.34
2023-11-06 11:33:00,SystemResetWarning,0827.0,5.01,000.00,027.0,025.8,000.0,035.5,028.4,10.8,0000.0,0008.68,0003.79,0003.34
2023-11-06 11:34:00,SystemResetWarning,0827.0,5.01,000.00,027.0,025.8,000.0,035.5,028.4,10.9,0000.0,0008.62,0003.80,0003.34
2023-11-06 11:35:00,SystemResetWarning,0826.9,5.01,000.00,027.0,025.8,000.0,035.5,028.4,10.8,0000.0,0008.70,0003.80,0003.34
2023-11-06 11:36:00,SystemResetWarning,0826.9,4.99,000.00,027.0,025.8,000.0,035.5,028.4,10.9,0000.0,0009.32,0003.78,0003.34
2023-11-06 11:37:00,SystemResetWarning,0827.0,4.98,000.00,027.0,025.8,000.0,035.4,028.4,11.0,0000.0,0009.42,0003.78,0003.33
2023-11-06 11:38:00,SystemResetWarning,0826.9,5.00,000.00,027.0,025.8,000.0,035.4,028.4,11.0,0000.0,0009.61,0003.80,0003.32
2023-11-06 11:39:00,SystemResetWarning,0826.9,5.00,000.00,027.0,025.8,000.0,035.4,028.4,11.0,0000.0,0009.84,0003.77,0003.31
2023-11-06 11:40:00,SystemResetWarning,0827.0,5.00,000.00,027.0,025.8,000.0,035.4,028.4,10.9,0000.0,0009.81,0003.74,0003.31
2023-11-06 11:41:00,SystemResetWarning,0827.0,5.01,000.00,027.0,025.8,000.0,035.4,028.4,10.9,0000.0,0009.62,0003.74,0003.30
2023-11-06 11:42:00,SystemResetWarning,0827.0,5.00,000.00,027.0,025.8,000.0,035.4,028.4,11.0,0000.0,0009.51,0003.72,0003.30
2023-11-06 11:43:00,SystemResetWarning,0827.0,4.99,000.00,027.0,025.8,000.0,035.4,028.4,11.1,0000.0,0009.63,0003.69,0003.28
2023-11-06 11:44:00,SystemResetWarning,0827.0,4.99,000.00,027.0,025.8,000.0,035.4,028.4,10.9,0000.0,0009.09,0003.66,0003.26
2023-11-06 11:45:00,SystemResetWarning,0827.0,5.00,000.00,027.0,025.8,000.0,035.4,028.3,10.8,0000.0,0009.15,0003.65,0003.24
2023-11-06 11:46:00,SystemResetWarning,0827.0,5.00,000.00,027.0,025.7,000.0,035.4,028.3,10.8,0000.0,0009.12,0003.62,0003.24
2023-11-06 11:47:00,SystemResetWarning,0827.0,5.01,000.00,027.0,025.7,000.0,035.4,028.3,10.8,0000.0,0008.60,0003.63,0003.24
2023-11-06 11:48:00,SystemResetWarning,0826.9,5.01,000.00,027.0,025.7,000.0,035.4,028.3,10.8,0000.0,0008.53,0003.64,0003.24
2023-11-06 11:49:00,SystemResetWarning,0827.0,5.00,000.00,026.9,025.7,000.0,035.4,028.3,10.8,0000.0,0008.47,0003.63,0003.25
2023-11-06 11:50:00,SystemResetWarning,0827.0,5.01,000.00,026.9,025.7,000.0,035.4,028.3,10.8,0000.0,0008.16,0003.63,0003.26
2023-11-06 11:51:00,SystemResetWarning,0827.0,5.00,000.00,026.9,025.7,000.0,035.4,028.3,10.8,0000.0,0008.08,0003.66,0003.28
2023-11-06 11:52:00,SystemResetWarning,0826.9,4.99,000.00,026.9,025.7,000.0,035.4,028.4,10.8,0000.0,0008.11,0003.67,0003.30
2023-11-06 11:53:00,SystemResetWarning,0826.9,5.00,000.00,026.9,025.7,000.0,035.4,028.4,10.9,0000.0,0008.10,0003.68,0003.32
2023-11-06 11:54:00,SystemResetWarning,0826.9,4.99,000.00,026.9,025.7,000.0,035.4,028.4,10.9,0000.0,0007.62,0003.71,0003.33
2023-11-06 11:55:00,SystemResetWarning,0826.9,5.00,000.00,026.9,025.7,000.0,035.4,028.3,10.9,0000.0,0006.53,0003.69,0003.34
2023-11-06 11:56:00,SystemResetWarning,0826.9,5.01,000.00,026.9,025.7,000.0,035.4,028.3,10.8,0000.0,0007.39,0003.68,0003.36
2023-11-06 11:57:00,SystemResetWarning,0826.9,5.00,000.00,026.9,025.7,000.0,035.4,028.3,10.9,0000.0,0007.41,0003.67,0003.35
2023-11-06 11:58:00,SystemResetWarning,0826.9,5.00,000.00,026.9,025.8,000.0,035.4,028.3,11.0,0000.0,0007.38,0003.68,0003.36
2023-11-06 11:59:00,SystemResetWarning,0826.9,5.00,000.00,026.9,025.7,000.0,035.3,028.3,11.1,0000.0,0007.25,0003.67,0003.35
